Location: Dijkshoek
(53.2614°N, 5.5467°E)
Time: 02:19:38
(UTC+00:00)

Daily predictions for brighter satellites

Satellite Brightness Start Highest point End
(mag) Time Altitude Azimuth Time Altitude Azimuth Time Altitude Azimuth
Cosmos 2263 Rocket 4.0 03:01:26 27° E 03:01:26 27° E 03:05:37 10° NE
SJ 16-02 4.3 03:08:47 14° E 03:08:54 14° E 03:11:08 10° ENE
ATLAS 3B R/B 2.9 03:30:34 64° NE 03:30:34 64° NE 03:37:33 10° ESE
Lacrosse 4 Rocket 4.4 03:38:11 11° SE 03:38:11 11° SE 03:38:19 10° SE
ALOS 3.4 03:48:11 10° NNE 03:52:38 41° E 03:53:16 39° ESE
Cosmos 2227 Rocket 3.8 03:57:13 24° N 03:57:13 24° N 03:59:51 10° NNE
Cosmos 2344 4.2 03:53:00 44° NW 03:56:38 81° NE 04:08:51 10° SE
CENTAUR R/B 3.5 04:01:35 46° SSW 04:01:35 46° SSW 04:08:35 10° SSE
USA 305 4.4 04:02:46 36° ENE 04:02:46 36° ENE 04:05:23 10° E
Cosmos 2227 4.3 04:01:36 69° SE 04:01:46 70° ESE 04:07:22 10° NE
NOSS 3-4 (A) 4.1 04:00:50 36° S 04:02:51 49° SE 04:08:57 10° NE
NOSS 3-4 (C) 4.1 04:00:54 35° S 04:02:59 49° SE 04:09:06 10° NE
ARGOS Delta rocket 4.4 03:58:33 10° NNE 04:03:43 60° E 04:04:43 50° SE
NOSS 3-1 (A) 4.5 04:08:34 35° NNW 04:09:25 36° N 04:16:15 10° ENE
USA 306 4.0 04:10:52 42° ENE 04:10:52 42° ENE 04:13:49 10° E
SL-4 R/B 3.4 04:15:02 34° ESE 04:15:02 34° ESE 04:17:20 10° E
Cosmos 1782 4.1 04:16:34 36° SE 04:16:34 36° SE 04:19:12 10° SSE
Cosmos 1777 Rocket 4.4 04:16:44 53° N 04:16:44 53° N 04:20:47 10° NNE
SKYMED 2 4.0 04:15:00 10° SSE 04:19:15 58° ENE 04:19:24 58° ENE
Cosmos 1680 Rocket 3.4 04:20:02 82° N 04:20:16 87° ENE 04:25:36 10° SSE
ATLAS 2AS CENTAUR R/B 3.5 04:15:31 13° SSW 04:22:34 59° SE 04:30:13 10° NE
Cosmos 2297 Rocket 3.7 04:30:30 22° NNW 04:30:30 22° NNW 04:33:38 10° NNE
ATLAS 5 CENTAUR R/B 2.7 04:31:19 43° NE 04:31:19 43° NE 04:33:01 10° NE
ATLAS CENTAUR R/B 2.1 04:32:06 45° SE 04:32:06 45° SE 04:34:53 10° SE
ADEOS 3.6 04:27:17 10° NNE 04:32:33 77° ESE 04:37:47 10° SSW
RESURS DK-1 4.4 04:29:41 10° S 04:33:13 27° ESE 04:36:46 10° NE
Lacrosse 5 2.8 04:32:03 29° S 04:34:06 43° SE 04:38:54 10° ENE
CRYOSAT 2 4.4 04:29:29 10° SSE 04:34:20 77° E 04:39:14 10° N
ERBS 3.9 04:38:12 32° ENE 04:38:12 32° ENE 04:40:07 10° ENE
CZ-2C R/B 4.2 04:33:14 10° N 04:34:19 16° N 04:34:19 16° N
Cosmos 2112 Rocket 3.9 04:38:53 56° NW 04:40:02 79° WSW 04:45:23 10° SSE
Gbstr 26 Del rocket 4.2 04:43:34 27° S 04:43:34 27° S 04:45:55 10° SE
Cosmos 1745 Rocket 4.3 04:44:18 43° NW 04:44:18 43° NW 04:49:51 10° N
Cosmos 2263 Rocket 2.1 04:43:11 52° WSW 04:44:24 67° NW 04:50:07 10° NNE
SJ 16-02 1.2 04:45:53 56° SSW 04:46:48 89° WNW 04:51:16 10° NNE
Meteor 1-26 Rocket 4.2 04:48:58 34° NW 04:51:20 58° W 04:56:51 10° S
Cosmos 1898 Rocket 4.2 04:49:15 10° S 04:54:25 55° ESE 04:59:39 10° NNE
CZ-2C R/B 4.2 04:52:31 10° ESE 04:57:20 33° ENE 05:02:04 10° N
FENGYUN 3A 3.6 04:52:03 10° N 04:57:26 64° WNW 05:02:45 10° SSW
Cosmos 1766 Rocket 3.6 04:58:04 58° WNW 04:58:04 58° WNW 05:02:25 10° N
Cosmos 1743 Rocket 4.3 04:57:38 10° S 05:01:58 54° E 05:06:22 10° NNE
Cosmos 2082 Rocket 3.8 04:57:53 13° NNW 05:02:09 28° NE 05:07:01 10° E
Cosmos 2181 Rocket 4.0 04:56:24 10° NNW 05:02:24 52° W 05:08:19 10° SSW
Cosmos 1408 Rocket 3.4 04:59:29 10° SSW 05:03:56 84° W 05:08:26 10° N
USA 307 2.8 05:05:08 55° WNW 05:06:01 82° N 05:10:21 10° E
Okean 3 Rocket 4.1 05:07:16 40° NW 05:07:16 40° NW 05:10:40 10° N
COSMO-SKYMED 1 2.6 05:03:05 10° S 05:07:20 52° W 05:07:59 47° WNW
Cosmos 1709 Rocket 4.2 05:02:47 10° SW 05:08:56 49° WNW 05:15:08 10° N
Cosmos 1937 Rocket 4.2 05:06:28 10° S 05:11:29 56° ESE 05:16:35 10° NNE
Lacrosse 4 Rocket 3.7 05:14:33 12° SW 05:14:33 12° SW 05:15:06 10° SSW
USA 308 2.8 05:11:14 49° WNW 05:12:22 83° N 05:16:42 10° E
Cosmos 1833 Rocket 3.7 05:08:13 14° NNW 05:12:48 42° NE 05:18:08 10° ESE
Meteor 2-3 Rocket 3.8 05:10:29 10° SSW 05:16:07 56° WNW 05:21:52 10° N
CZ-4B R/B 3.1 05:11:34 10° NNE 05:16:08 88° WNW 05:20:34 10° SSW
Meteor 1-27 Rocket 4.2 05:11:08 10° N 05:16:51 63° ENE 05:22:39 10° SSE
CZ-4C R/B 2.5 05:11:52 10° SSW 05:16:56 68° SE 05:23:07 10° NE
MOS 1 Rocket 3.4 05:12:50 10° SSE 05:17:43 87° ENE 05:22:57 10° NNW
Cosmos 2154 Rocket 4.4 05:11:48 10° S 05:17:56 65° E 05:24:10 10° NNE
Meteor 1-10 Rocket 4.1 05:13:21 10° NNW 05:18:57 87° WSW 05:24:33 10° S
FALCON 9 DEB 4.3 05:18:32 22° SSW 05:20:02 35° SSE 05:23:01 10° E
Cosmos 1689 Rocket 4.3 05:17:34 10° S 05:18:12 15° SSW 05:18:12 15° SSW
ATLAS 3B R/B 3.1 05:17:51 28° WNW 05:21:06 46° WSW 05:27:50 10° SSE
COSMOS 2406 3.8 05:18:03 14° NNW 05:22:59 56° NE 05:28:39 10° SE
Aureole 2 Rocket 3.9 05:23:01 10° S 05:25:16 27° ESE 05:27:31 10° NE
YAOGAN 6 3.8 05:23:28 10° NNE 05:26:51 43° E 05:30:11 10° S
Cosmos 1862 3.4 05:24:36 10° S 05:28:40 82° E 05:32:45 10° NNE
Genesis I 3.6 05:25:51 10° SSW 05:29:37 61° SE 05:33:27 10° NE
deb Chang Zheng 4 3.8 05:25:44 10° N 05:29:53 46° WNW 05:34:03 10° SW
ALOS 2.9 05:25:48 10° N 05:29:59 33° WNW 05:31:45 25° WSW
PSLV R/B 4.0 05:31:49 10° NNE 05:35:44 70° ESE 05:39:30 10° S
Cosmos 990 Rocket 3.9 05:31:52 10° SW 05:37:07 68° WNW 05:42:23 10° NNE
Cosmos 2327 Rocket 4.5 05:31:13 10° S 05:37:19 87° E 05:43:27 10° N
METEOR-M 4.5 05:32:25 10° N 05:37:24 41° WNW 05:42:22 10° SW
ASTRO F (AKARI) 4.1 05:34:39 10° NNE 05:37:45 89° ESE 05:40:52 10° SSW
Cosmos 2074 Rocket 3.9 05:32:36 10° SSW 05:38:46 67° WNW 05:44:59 10° N
Meteor 1-31 Rocket 3.5 05:36:17 10° N 05:39:40 30° WNW 05:40:29 27° W
Cosmos 2227 Rocket 3.9 05:39:03 14° NW 05:40:25 16° NNW 05:43:44 10° NNE
USA 305 2.9 05:38:55 28° WNW 05:41:10 87° SSW 05:45:30 10° ESE
Cosmos 405 Rocket 2.5 05:40:46 10° SSW 05:44:27 79° W 05:48:16 10° NNE
SL-24 DEB 4.3 05:40:05 10° S 05:44:52 88° W 05:49:42 10° N
Cosmos 1812 3.0 05:42:51 17° NNW 05:45:28 44° W 05:49:07 10° SSW
USA 229 DEB 4.5 05:42:20 16° NW 05:47:51 48° NNE 05:55:04 10° E
USA 229 4.5 05:42:25 16° NW 05:47:56 48° NNE 05:55:09 10° E
Cosmos 2228 Rocket 3.3 05:43:41 10° NNW 05:47:57 47° W 05:52:11 10° SSW
EO 1 Delta rocket 4.1 05:43:58 10° S 05:48:40 46° W 05:53:09 10° NNW
USA 306 2.9 05:47:01 24° WNW 05:49:36 84° SSW 05:53:55 10° ESE
Cosmos 1295 Rocket 4.5 05:44:11 10° S 05:50:16 87° E 05:56:25 10° NNE
Cosmos 1782 4.5 05:52:15 17° WSW 05:52:15 17° WSW 05:53:57 10° SW
SL-4 R/B 2.0 05:50:37 21° W 05:53:02 65° S 05:56:39 10° ESE
NOSS 3-4 (A) 3.6 05:48:19 13° WSW 05:53:43 56° NNW 06:00:15 10° NE
NOSS 3-4 (C) 3.6 05:48:24 12° WSW 05:53:51 56° NNW 06:00:23 10° NE
Cosmos 2184 Rocket 4.1 05:50:12 10° SSW 05:56:23 54° WNW 06:02:40 10° N
USA-17 4.4 05:53:04 10° SW 05:56:32 74° SE 05:59:35 10° NE
Spot 2 4.5 05:52:48 10° NNE 05:58:00 84° WNW 06:03:06 10° SSW
FALCON 9 DEB 3.4 05:56:58 13° WSW 05:59:44 58° SSE 06:02:54 10° E
Cosmos 1356 4.4 05:56:50 10° S 06:00:08 50° E 06:03:29 10° NNE
NOSS 3-1 (C) 4.3 05:54:50 14° NW 06:00:57 58° NNE 06:09:03 10° ESE
NOSS 3-1 (A) 4.5 05:56:00 14° NW 06:01:51 49° NNE 06:09:41 10° E
FALCON 9 DEB 3.3 05:59:52 20° W 06:02:07 66° SSW 06:05:33 10° ESE
Cosmos 1844 Rocket 2.6 05:57:07 10° SW 06:02:46 71° NW 06:08:28 10° NNE
Cosmos 1707 Rocket 3.4 06:00:41 10° NNW 06:05:02 76° W 06:09:22 10° S
MOS 1-B 4.4 06:01:01 10° NNE 06:06:54 86° ESE 06:12:43 10° SSW
ATLAS CENTAUR R/B 3.0 06:08:18 13° W 06:09:23 15° WSW 06:11:36 10° SSW
NOAA 6 4.0 06:04:56 10° NNE 06:10:04 81° WNW 06:15:12 10° SSW
COSMOS 2455 3.3 06:04:54 10° SSW 06:10:53 69° SE 06:16:54 10° NE
RESURS DK-1 2.6 06:07:03 10° SW 06:11:05 46° NW 06:15:08 10° NNE
H-2A R/B 3.2 06:09:03 10° N 06:12:44 39° WNW 06:16:22 10° SW
OPS 8737 4.4 06:10:36 17° NW 06:12:53 65° SW 06:16:42 10° SE
ERBS 2.9 06:11:05 17° WNW 06:13:19 41° N 06:16:29 10° ENE
EP 3 3.2 06:11:51 11° SW 06:13:42 69° NW 06:15:37 10° NE
ATLAS 2AS CENTAUR R/B 3.1 06:05:54 10° WSW 06:13:47 59° NNW 06:21:24 10° NE
USA 290 3.7 06:10:57 10° NNW 06:14:02 34° NE 06:17:04 10° ESE
CZ-4B DEB 4.1 06:09:44 10° NNE 06:15:13 75° WNW 06:20:40 10° SSW
Cosmos 2297 Rocket 4.1 06:12:43 10° NW 06:15:22 13° N 06:18:02 10° NNE
Cosmos 1437 Rocket 3.4 06:12:11 10° NNW 06:15:36 32° W 06:18:59 10° SSW
Cosmos 1500 Rocket 4.1 06:12:00 10° SW 06:15:56 34° WNW 06:19:55 10° N
Cosmos 1844 3.6 06:11:07 10° SW 06:16:39 69° NW 06:22:16 10° NNE
Lacrosse 5 1.9 06:11:51 10° WSW 06:16:56 74° NNW 06:22:02 10° ENE
Okean O Rocket 1.8 06:14:23 10° NNE 06:18:51 78° ESE 06:23:19 10° SSW
Cosmos 372 Rocket 3.9 06:15:03 10° SSW 06:20:08 83° WNW 06:25:18 10° NNE
Cosmos 1242 Rocket 2.8 06:17:03 10° N 06:20:43 75° ENE 06:24:23 10° SSE
PAYLOAD B 4.2 06:16:06 10° NNE 06:21:39 80° WNW 06:27:09 10° SSW
SMAP 3.1 06:17:51 10° NNE 06:22:34 87° WNW 06:27:13 10° SSW
Geosat 4.0 06:18:19 10° SSE 06:23:19 69° WSW 06:28:22 10° NW
SJ 16-02 2.8 06:23:03 10° W 06:26:03 18° NW 06:29:06 10° N
USA 81 4.0 06:21:01 10° S 06:26:16 79° W 06:31:35 10° N
Cosmos 2263 Rocket 3.4 06:25:03 10° W 06:29:26 22° NNW 06:33:49 10° NNE
FALCON 9 DEB 3.1 06:29:50 10° WSW 06:33:02 74° S 06:36:15 10° E
FALCON 9 DEB 3.1 06:29:53 10° WSW 06:33:06 76° S 06:36:19 10° E
ATLAS 5 CENTAUR R/B 3.1 06:29:13 10° SSW 06:33:06 41° SE 06:37:29 10° NE
Cosmos 1470 Rocket 4.4 06:30:27 10° S 06:34:46 57° E 06:39:04 10° NNE
AQUARIUS 4.1 06:31:48 10° NNE 06:36:18 73° WNW 06:40:46 10° SSW
Sich 1 3.3 06:32:13 10° SSW 06:36:32 49° WNW 06:40:53 10° N
Cosmos 2218 Rocket 4.1 06:30:30 10° S 06:36:46 84° E 06:42:59 10° NNE
H-2A R/B 2.6 06:33:06 10° N 06:36:47 42° WNW 06:40:24 10° SW
Cosmos 1898 Rocket 4.2 06:32:01 10° WSW 06:36:49 33° NW 06:41:38 10° NNE
Envisat 3.2 06:31:56 10° N 06:36:49 47° WNW 06:41:39 10° SW
CZ-2C R/B 2.9 06:32:08 10° S 06:37:28 51° W 06:42:42 10° NNW
Cosmos 2366 rocket 4.2 06:34:48 10° S 06:41:09 86° E 06:47:27 10° NNE
CORIOLIS 4.2 06:36:10 10° NNE 06:41:40 82° WNW 06:47:06 10° SSW
Cosmos 1602 4.2 06:39:19 10° S 06:43:13 69° E 06:47:10 10° NNE
Iridium 2 4.5 06:40:57 10° N 06:44:39 54° E 06:48:20 10° SSE
USA 307 3.4 06:41:47 10° WNW 06:46:01 54° SSW 06:50:13 10° SE
CZ-4B R/B 3.1 06:41:13 10° NNE 06:46:32 70° WNW 06:51:54 10° SSW
Cosmos 2082 Rocket 2.3 06:41:12 10° NNW 06:46:57 86° WSW 06:52:40 10° SSE
NOAA 11 4.3 06:42:45 10° NNE 06:48:16 87° WNW 06:53:46 10° SSW
CZ-4 R/B 3.1 06:45:14 10° NNE 06:49:12 40° E 06:53:12 10° SSE
Cosmos 1862 Rocket 3.8 06:46:45 10° NNW 06:51:07 52° W 06:55:25 10° S
